This is the latest recevied weather packets stored in our database for station/object KC7UNY-13. If no packets are shown the sender has not sent any weather packets the latest 10 day(s).
| Time | Temp. | Humidity | Pressure | Rain* | Wind** | Luminosity | Snow |
|---|---|---|---|---|---|---|---|
| 1776925604 | 20.56° C | 24% | 1012.1 hPa | 0 mm | - | 0 W/m² | - |
| 1776925300 | 21.11° C | 23% | 1011.9 hPa | 0 mm | - | 0 W/m² | - |
| 1776924997 | 20.56° C | 23% | 1012 hPa | 0 mm | - | 0 W/m² | - |
| 1776924695 | 20.56° C | 24% | 1012.1 hPa | 0 mm | - | 0 W/m² | - |
| 1776924392 | 21.11° C | 23% | 1011.9 hPa | 0 mm | - | 0 W/m² | - |
| 1776924088 | 21.11° C | 23% | 1012.2 hPa | 0 mm | - | 0 W/m² | - |
| 1776923786 | 21.11° C | 24% | 1011.9 hPa | 0 mm | - | 0 W/m² | - |
| 1776923483 | 20.56° C | 24% | 1012 hPa | 0 mm | - | 0 W/m² | - |
| 1776923179 | 20° C | 25% | 1012 hPa | 0 mm | - | 0 W/m² | - |
| 1776922876 | 20° C | 26% | 1011.9 hPa | 0 mm | - | 0 W/m² | - |
| 1776922572 | 20° C | 25% | 1011.8 hPa | 0 mm | - | 0 W/m² | - |
| 1776922268 | 20.56° C | 26% | 1011.8 hPa | 0 mm | - | 0 W/m² | - |
| 1776921966 | 21.11° C | 24% | 1011.6 hPa | 0 mm | - | 0 W/m² | - |
| 1776921664 | 21.67° C | 25% | 1011.7 hPa | 0 mm | - | 0 W/m² | - |
| 1776921361 | 21.67° C | 23% | 1011.7 hPa | 0 mm | - | 0 W/m² | - |
| 1776921058 | 22.22° C | 26% | 1011.8 hPa | 0 mm | - | 0 W/m² | - |
| 1776920754 | 22.78° C | 23% | 1011.8 hPa | 0 mm | - | 0 W/m² | - |
| 1776920452 | 22.78° C | 23% | 1011.9 hPa | 0 mm | - | 0 W/m² | - |
| 1776920148 | 22.78° C | 23% | 1011.8 hPa | 0 mm | - | 0 W/m² | - |
| 1776919844 | 23.33° C | 23% | 1011.6 hPa | 0 mm | - | 0 W/m² | - |
| 1776919540 | 23.33° C | 21% | 1011.7 hPa | 0 mm | - | 0 W/m² | - |
| 1776919236 | 22.78° C | 24% | 1011.6 hPa | 0 mm | - | 0 W/m² | - |
| 1776918932 | 22.22° C | 24% | 1011.6 hPa | 0 mm | - | 0 W/m² | - |
| 1776918628 | 22.78° C | 27% | 1011.8 hPa | 0 mm | - | 0 W/m² | - |
| 1776918325 | 22.78° C | 25% | 1011.7 hPa | 0 mm | - | 0 W/m² | - |
* Rain latest hour (hover to see other rain measurements)
** Current wind speed in m/s (hover to see current wind gust speed)